GW0500 Weather Reports


Display with metric or nautical units.
time (UTC)temp
F
wind
direction
speed
MPH
gust
MPH
rain 1hr
in
rain 24hr
in
rain mn
in
humidity
%
barometer
mb
20260506024045 43 156 0.0 1.0 0.00 0.16 0.13 88 1017.0
20260506023546 43 0 0.0 2.0 0.00 0.16 0.13 89 1016.9
20260506023100 43 67 0.0 4.0 0.00 0.16 0.13 88 1016.9
20260506022543 43 0 0.0 4.0 0.00 0.16 0.13 88 1016.8
20260506022045 44 0 0.0 3.0 0.00 0.16 0.13 88 1016.8
20260506021606 44 44 0.0 3.0 0.00 0.16 0.13 87 1016.7
20260506021044 44 0 0.0 3.0 0.00 0.16 0.13 87 1016.8
20260506020546 44 0 0.0 3.0 0.00 0.16 0.13 86 1016.7
20260506020049 44 0 1.0 4.0 0.00 0.16 0.13 85 1016.6
20260506015547 44 43 0.0 5.0 0.00 0.16 0.13 85 1016.6
20260506015047 44 209 1.0 5.0 0.00 0.16 0.13 85 1016.7
20260506014558 44 0 1.0 5.0 0.00 0.16 0.13 83 1016.5
20260506014044 44 142 1.0 5.0 0.00 0.16 0.13 83 1016.5
20260506013544 45 341 0.0 4.0 0.00 0.16 0.13 84 1016.5
20260506013104 45 0 0.0 4.0 0.00 0.16 0.13 84 1016.4
20260506012547 45 178 1.0 4.0 0.00 0.16 0.13 82 1016.4
20260506012047 45 0 1.0 3.0 0.00 0.16 0.13 81 1016.4
20260506011555 45 62 1.0 5.0 0.01 0.16 0.13 81 1016.5
20260506011048 45 0 1.0 6.0 0.01 0.16 0.13 81 1016.5
20260506010545 46 98 1.0 6.0 0.01 0.16 0.13 81 1016.4
20260506010112 46 0 2.0 5.0 0.01 0.16 0.13 81 1016.3
20260506005547 46 310 1.0 6.0 0.01 0.16 0.13 79 1016.3
20260506005044 46 273 2.0 6.0 0.01 0.16 0.13 78 1016.2
20260506004554 47 95 1.0 6.0 0.01 0.16 0.13 79 1016.2
20260506004048 47 309 0.0 4.0 0.01 0.16 0.13 78 1016.0
20260506003545 47 0 1.0 6.0 0.01 0.16 0.13 78 1016.1
20260506003052 47 351 1.0 6.0 0.01 0.16 0.13 75 1015.9
20260506002545 47 154 0.0 10.0 0.01 0.16 0.13 77 1015.9
20260506002045 47 242 1.0 10.0 0.00 0.15 0.12 78 1016.0
20260506001551 47 0 2.0 10.0 0.00 0.15 0.12 75 1015.8
20260506001045 47 338 2.0 8.0 0.00 0.15 0.12 76 1015.9
20260506000544 47 59 1.0 6.0 0.00 0.15 0.12 79 1015.9
20260506000056 47 0 1.0 9.0 0.00 0.15 0.12 79 1015.8
20260505235545 47 302 1.0 9.0 0.00 0.15 0.12 77 1015.9
20260505235048 48 142 2.0 7.0 0.00 0.15 0.12 73 1015.7
20260505234607 48 0 1.0 7.0 0.00 0.15 0.12 73 1015.7
20260505234045 48 0 1.0 8.0 0.00 0.15 0.12 76 1015.6
20260505233544 48 0 2.0 10.0 0.00 0.15 0.12 76 1015.7
20260505233049 48 170 2.0 11.0 0.00 0.15 0.12 74 1015.7
20260505232550 48 146 1.0 11.0 0.01 0.15 0.12 74 1015.6
20260505232046 48 230 2.0 7.0 0.01 0.15 0.12 76 1015.8
20260505231553 49 213 2.0 10.0 0.01 0.15 0.12 74 1015.7
20260505231046 49 294 2.0 17.0 0.01 0.15 0.12 74 1015.7
20260505230544 49 114 4.0 17.0 0.01 0.15 0.12 73 1015.7
20260505230053 48 172 1.0 10.0 0.01 0.15 0.12 78 1015.7
20260505225547 48 266 3.0 10.0 0.01 0.15 0.12 78 1015.7
20260505225048 48 27 2.0 6.0 0.01 0.15 0.12 81 1015.8
20260505224551 48 136 2.0 10.0 0.01 0.15 0.12 78 1015.8
20260505224049 48 0 2.0 10.0 0.01 0.15 0.12 78 1015.9
20260505223544 48 55 4.0 9.0 0.01 0.15 0.12 78 1015.9
20260505223050 48 0 2.0 9.0 0.01 0.15 0.12 80 1015.9
20260505222548 47 281 3.0 9.0 0.00 0.14 0.11 79 1016.1
20260505222044 47 202 2.0 11.0 0.00 0.14 0.11 80 1016.1
20260505221551 47 69 2.0 11.0 0.00 0.14 0.11 79 1016.1
20260505221052 48 152 2.0 7.0 0.00 0.14 0.11 82 1016.2
20260505220546 47 90 1.0 7.0 0.00 0.14 0.11 83 1016.1
20260505220056 46 275 2.0 11.0 0.00 0.14 0.11 81 1016.2
20260505215544 46 294 2.0 11.0 0.01 0.14 0.11 86 1016.2
20260505215052 46 312 3.0 9.0 0.01 0.14 0.11 84 1016.1
20260505214604 46 54 1.0 9.0 0.01 0.14 0.11 88 1016.1
20260505214047 46 0 1.0 9.0 0.01 0.14 0.11 87 1016.2
20260505213549 46 108 2.0 6.0 0.01 0.14 0.11 88 1016.2
20260505213059 46 131 2.0 8.0 0.01 0.14 0.11 90 1016.4
20260505212544 45 285 2.0 8.0 0.01 0.14 0.11 91 1016.4
20260505212046 45 60 1.0 7.0 0.01 0.14 0.11 92 1016.4
20260505211550 45 152 2.0 9.0 0.01 0.14 0.11 91 1016.3
20260505211044 45 155 2.0 9.0 0.01 0.14 0.11 91 1016.5
20260505210545 45 107 1.0 12.0 0.01 0.14 0.11 92 1016.3
20260505210058 45 123 1.0 12.0 0.01 0.14 0.11 93 1016.5
20260505205544 45 58 2.0 12.0 0.00 0.13 0.10 94 1016.6
20260505205049 45 217 1.0 6.0 0.00 0.13 0.10 94 1016.4
20260505204559 45 202 2.0 6.0 0.00 0.13 0.10 94 1016.6
20260505204044 44 84 1.0 7.0 0.00 0.13 0.10 94 1016.5
20260505203547 44 116 1.0 7.0 0.00 0.13 0.10 94 1016.5
20260505203056 45 99 2.0 7.0 0.00 0.13 0.10 95 1016.4
20260505202545 44 138 2.0 10.0 0.00 0.13 0.10 95 1016.5
20260505202045 43 131 1.0 10.0 0.00 0.13 0.10 95 1016.5
20260505201555 43 87 1.0 6.0 0.00 0.13 0.10 95 1016.6
20260505201044 43 199 2.0 6.0 0.00 0.13 0.10 95 1016.6
20260505200547 43 68 2.0 7.0 0.00 0.13 0.10 95 1016.7
20260505195545 43 78 1.0 8.0 0.00 0.13 0.10 95 1016.7
20260505195049 43 211 1.0 8.0 0.01 0.13 0.10 95 1016.6
20260505194557 42 0 0.0 8.0 0.01 0.13 0.10 95 1016.6
20260505194045 42 64 1.0 8.0 0.01 0.13 0.10 95 1016.7
20260505193546 42 0 1.0 7.0 0.01 0.13 0.10 95 1016.7
20260505193053 42 5 2.0 7.0 0.01 0.13 0.10 95 1016.9
20260505192543 42 148 2.0 5.0 0.01 0.13 0.10 95 1016.9
20260505192043 42 218 0.0 4.0 0.01 0.13 0.10 95 1016.8
20260505191551 42 61 1.0 6.0 0.01 0.13 0.10 95 1017.0
20260505191048 42 33 1.0 6.0 0.01 0.13 0.10 95 1016.9
20260505190545 42 171 1.0 6.0 0.01 0.13 0.10 95 1016.8
20260505190050 42 200 0.0 5.0 0.01 0.13 0.10 95 1016.8
20260505185547 42 150 2.0 11.0 0.01 0.13 0.10 95 1016.7
20260505185045 42 170 1.0 11.0 0.00 0.12 0.09 95 1016.7
20260505184552 42 141 2.0 7.0 0.00 0.12 0.09 95 1016.6
20260505184044 42 134 1.0 7.0 0.00 0.12 0.09 95 1016.7
20260505183548 42 36 1.0 10.0 0.00 0.12 0.09 95 1016.7
20260505183054 42 0 2.0 10.0 0.00 0.12 0.09 95 1016.5
20260505182547 42 63 0.0 6.0 0.00 0.12 0.09 95 1016.5
20260505182046 42 139 0.0 8.0 0.00 0.12 0.09 95 1016.5
20260505181550 42 84 3.0 8.0 0.00 0.12 0.09 95 1016.5
20260505181045 42 155 1.0 3.0 0.00 0.12 0.09 96 1016.5
20260505180550 42 240 1.0 6.0 0.00 0.12 0.09 95 1016.4
20260505180105 42 281 1.0 6.0 0.00 0.12 0.09 95 1016.4
20260505175547 42 54 1.0 5.0 0.00 0.12 0.09 95 1016.4
20260505175048 42 0 1.0 12.0 0.00 0.12 0.09 95 1016.2
20260505174603 41 140 3.0 12.0 0.00 0.12 0.09 95 1016.3
20260505174044 42 104 2.0 12.0 0.00 0.12 0.09 95 1016.2
20260505173544 42 74 2.0 8.0 0.00 0.12 0.09 95 1016.1
20260505173052 42 139 1.0 8.0 0.01 0.12 0.09 95 1016.1
20260505172546 42 163 2.0 5.0 0.01 0.12 0.09 95 1016.0
20260505172044 42 352 0.0 10.0 0.01 0.12 0.09 95 1015.8
20260505171551 42 184 3.0 10.0 0.01 0.12 0.09 95 1015.8
20260505171048 42 132 1.0 4.0 0.01 0.12 0.09 95 1015.7
20260505170550 42 38 0.0 3.0 0.01 0.12 0.09 95 1015.6
20260505170057 42 360 1.0 5.0 0.01 0.12 0.09 95 1015.6
20260505165544 42 0 1.0 7.0 0.01 0.13 0.09 95 1015.4
20260505165046 42 192 1.0 7.0 0.01 0.13 0.09 95 1015.3
20260505164552 42 0 0.0 6.0 0.01 0.13 0.09 95 1015.3
20260505164046 42 263 1.0 6.0 0.01 0.13 0.09 95 1015.3
20260505163546 42 0 0.0 10.0 0.01 0.13 0.09 95 1015.3
20260505163054 42 337 0.0 12.0 0.00 0.12 0.08 95 1015.3
20260505162545 42 158 2.0 12.0 0.00 0.12 0.08 95 1015.2
20260505162044 42 344 1.0 5.0 0.00 0.12 0.08 95 1015.1
20260505161605 42 214 1.0 8.0 0.00 0.12 0.08 95 1015.1
20260505161047 42 171 1.0 8.0 0.00 0.12 0.08 95 1015.2
20260505160545 42 207 1.0 6.0 0.00 0.12 0.08 95 1015.1
20260505153054 42 297 1.0 8.0 0.01 0.12 0.08 95 1014.7
20260505152544 42 71 1.0 5.0 0.01 0.12 0.08 95 1014.8
20260505152049 42 241 1.0 5.0 0.01 0.12 0.08 95 1014.7
20260505151551 42 126 2.0 7.0 0.01 0.12 0.08 95 1014.7
20260505151044 42 159 1.0 7.0 0.01 0.12 0.08 95 1014.6
20260505150546 42 219 1.0 8.0 0.01 0.12 0.08 95 1014.6
20260505140547 42 0 0.0 3.0 0.01 0.11 0.07 95 1014.2
20260505140104 42 95 1.0 5.0 0.01 0.11 0.07 95 1014.2
20260505124552 43 53 2.0 5.0 0.01 0.11 0.06 95 1014.2
20260505124047 43 0 1.0 6.0 0.01 0.11 0.06 95 1014.1
20260505123545 42 121 1.0 6.0 0.01 0.11 0.06 95 1014.0
20260505123100 42 90 0.0 4.0 0.01 0.11 0.06 95 1013.8
20260505122545 42 0 0.0 3.0 0.01 0.11 0.06 95 1013.7
20260505122046 42 147 0.0 3.0 0.01 0.11 0.06 95 1013.8
20260505121557 42 199 0.0 3.0 0.00 0.10 0.05 95 1013.8
20260505121046 43 111 1.0 6.0 0.00 0.10 0.05 95 1013.8
20260505120546 43 0 1.0 6.0 0.01 0.10 0.05 95 1013.9
20260505120051 43 334 1.0 5.0 0.01 0.10 0.05 95 1014.0
20260505115544 43 40 1.0 4.0 0.01 0.10 0.05 95 1013.9
20260505115045 43 0 0.0 4.0 0.01 0.10 0.05 95 1013.9
20260505114554 43 0 0.0 2.0 0.01 0.10 0.05 95 1013.8
20260505114048 43 135 0.0 2.0 0.01 0.10 0.05 95 1013.9
20260505113547 43 328 0.0 5.0 0.01 0.10 0.05 95 1013.8
20260505113108 43 87 0.0 5.0 0.01 0.10 0.05 95 1013.9
20260505112547 42 67 2.0 5.0 0.01 0.10 0.05 95 1013.9
20260505112046 42 103 0.0 3.0 0.01 0.10 0.05 95 1014.1
20260505111552 42 0 0.0 2.0 0.01 0.10 0.05 95 1014.0
20260505111046 42 0 0.0 6.0 0.01 0.10 0.05 95 1014.0
20260505110546 42 0 0.0 6.0 0.00 0.09 0.04 95 1013.9
20260505102044 42 0 0.0 3.0 0.01 0.10 0.04 95 1013.9
20260505101555 42 0 0.0 2.0 0.01 0.10 0.04 95 1013.9
20260505101046 41 34 0.0 2.0 0.01 0.10 0.04 95 1013.9
20260505100548 41 0 0.0 3.0 0.01 0.10 0.04 95 1014.1
20260505100055 41 0 0.0 3.0 0.00 0.09 0.03 95 1014.1
20260505095543 41 32 1.0 3.0 0.00 0.10 0.03 95 1014.2
20260505095046 41 67 1.0 3.0 0.00 0.10 0.03 94 1014.2
20260505094557 41 0 0.0 4.0 0.01 0.10 0.03 94 1014.2
20260505094047 41 127 0.0 5.0 0.01 0.10 0.03 94 1014.2
20260505093547 41 124 2.0 5.0 0.01 0.10 0.03 94 1014.4
20260505093054 41 82 0.0 7.0 0.01 0.10 0.03 94 1014.4
20260505092546 41 105 1.0 7.0 0.01 0.10 0.03 94 1014.4
20260505092047 41 147 1.0 4.0 0.01 0.10 0.03 94 1014.5
20260505091608 41 30 0.0 4.0 0.01 0.10 0.03 94 1014.4
20260505091045 41 106 0.0 3.0 0.01 0.10 0.03 95 1014.5
20260505090546 41 61 0.0 3.0 0.01 0.10 0.03 94 1014.5
20260505090054 41 0 0.0 3.0 0.01 0.10 0.03 95 1014.5
20260505085550 41 0 0.0 3.0 0.01 0.10 0.03 95 1014.5
20260505085046 41 0 0.0 3.0 0.02 0.10 0.03 95 1014.6
20260505084553 41 0 0.0 3.0 0.01 0.09 0.02 95 1014.7
20260505084045 41 0 0.0 2.0 0.01 0.09 0.02 95 1014.6
20260505083545 41 0 0.0 3.0 0.01 0.09 0.02 94 1014.6
20260505083049 41 0 0.0 3.0 0.01 0.09 0.02 94 1014.9
20260505082549 41 311 1.0 4.0 0.01 0.09 0.02 94 1015.0
20260505082047 41 280 0.0 4.0 0.01 0.09 0.02 94 1015.1
20260505081600 41 0 1.0 6.0 0.01 0.09 0.02 94 1015.1
20260505081047 41 0 1.0 6.0 0.01 0.09 0.02 94 1015.2
20260505080546 41 240 0.0 4.0 0.01 0.09 0.02 94 1015.3
20260505080108 41 0 0.0 4.0 0.02 0.09 0.02 94 1015.3
20260505075549 41 98 1.0 4.0 0.02 0.09 0.02 94 1015.4
20260505075046 41 0 0.0 3.0 0.01 0.08 0.01 94 1015.3
20260505074602 41 85 0.0 4.0 0.01 0.08 0.01 94 1015.3
20260505074044 41 0 2.0 4.0 0.01 0.08 0.01 94 1015.3
20260505073545 41 121 1.0 4.0 0.01 0.08 0.01 94 1015.3
20260505073051 41 0 1.0 4.0 0.01 0.08 0.01 94 1015.3
20260505072548 42 0 0.0 6.0 0.01 0.08 0.01 94 1015.3
20260505072048 42 123 1.0 6.0 0.01 0.08 0.01 94 1015.3
20260505071557 42 297 1.0 6.0 0.02 0.08 0.01 94 1015.4
20260505071045 42 101 1.0 6.0 0.02 0.08 0.01 94 1015.4
20260505070547 42 51 2.0 5.0 0.02 0.08 0.01 94 1015.4
20260505070056 42 144 1.0 8.0 0.01 0.07 0.00 94 1015.4
20260505065546 42 94 1.0 8.0 0.01 0.07 0.07 94 1015.4
20260505065044 42 136 1.0 8.0 0.01 0.07 0.07 94 1015.6
20260505064551 42 172 1.0 5.0 0.01 0.07 0.07 94 1015.6
20260505064048 42 67 0.0 5.0 0.01 0.07 0.07 94 1015.6
20260505063732 42 301 1.0 5.0 0.01 0.07 0.07 94 1015.6
20260505063119 42 71 1.0 5.0 0.01 0.07 0.07 94 1015.6
20260505062546 42 50 1.0 4.0 0.01 0.07 0.07 94 1015.6
20260505062045 42 170 1.0 7.0 0.01 0.07 0.07 94 1015.6
20260505061623 42 44 1.0 7.0 0.00 0.06 0.06 93 1015.6
20260505061045 42 60 0.0 5.0 0.01 0.06 0.06 94 1015.8
20260505060548 42 182 1.0 5.0 0.01 0.06 0.06 94 1015.8
20260505055546 42 163 1.0 7.0 0.01 0.06 0.06 94 1015.8
20260505055046 42 56 1.0 8.0 0.01 0.06 0.06 93 1015.8
20260505054606 42 238 1.0 8.0 0.01 0.06 0.06 94 1016.0
20260505054048 42 153 2.0 8.0 0.01 0.06 0.06 93 1016.0
20260505053545 42 137 1.0 4.0 0.01 0.06 0.06 93 1016.1
20260505053051 42 0 1.0 5.0 0.01 0.06 0.06 93 1015.9
20260505052548 42 139 1.0 5.0 0.01 0.06 0.06 93 1016.0
20260505052048 42 116 1.0 7.0 0.01 0.06 0.06 93 1016.0
20260505051610 42 0 1.0 7.0 0.01 0.06 0.06 93 1016.1
20260505051048 42 46 2.0 18.0 0.01 0.05 0.05 93 1016.2
20260505050547 42 138 1.0 18.0 0.01 0.05 0.05 93 1016.2
20260505041559 42 90 2.0 3.0 0.01 0.05 0.05 92 1016.2
20260505041045 43 321 1.0 8.0 0.00 0.04 0.04 93 1016.2
20260505040545 43 95 1.0 8.0 0.00 0.04 0.04 93 1016.2
20260505040100 43 296 1.0 6.0 0.00 0.04 0.04 92 1016.1
20260505035546 43 90 1.0 4.0 0.00 0.04 0.04 92 1016.0
20260505035044 43 286 1.0 4.0 0.00 0.04 0.04 91 1015.9
20260505034553 43 0 1.0 5.0 0.00 0.04 0.04 91 1016.1
20260505034045 44 126 1.0 5.0 0.00 0.04 0.04 92 1016.1
20260505033545 44 0 1.0 5.0 0.00 0.04 0.04 92 1015.9
20260505033058 44 211 1.0 7.0 0.00 0.04 0.04 92 1015.9
20260505032545 44 44 1.0 7.0 0.00 0.04 0.04 92 1015.8
20260505032046 44 0 2.0 11.0 0.00 0.04 0.04 92 1015.8
20260505031558 44 117 3.0 11.0 0.00 0.04 0.04 92 1016.0
20260505031047 44 32 1.0 7.0 0.00 0.04 0.04 92 1015.7
20260505030545 44 152 3.0 7.0 0.00 0.04 0.04 91 1015.8
20260505030057 44 140 2.0 5.0 0.00 0.04 0.04 91 1015.6
20260505025545 44 122 1.0 4.0 0.00 0.04 0.04 91 1015.5
20260505025045 44 98 1.0 11.0 0.00 0.04 0.04 91 1015.6
20260505024556 44 0 2.0 11.0 0.00 0.04 0.04 91 1015.4